RH
13 10 8 8 10 12 15 14 20 21 24 23 22 20 18 15 14 12 13 12 15 16 16 16 16 15 18 20 16 16 14 14 15 13 13 13 15 17 15 15 19 20 24 28 29
17 15 13 11 14 13 13 18 21 24 23 22 20 20 16 15 14 13 14 18 16 17 18 19 20 19 18 20 18 14 13 14 15 15 16 14 14 17 19 17 22 24 29 33 32
15 13 14 14 12 13 16 19 23 22 23 24 24 19 16 15 15 17 23 21 19 21 22 23 22 20 20 20 20 16 16 17 15 12 12 14 17 21 18 23 25 27 27 27 27
16 14 12 12 14 15 19 23 22 23 22 26 25 27 20 14 12 15 22 22 22 20 17 20 19 18 18 23 16 12 10 3 4 6 4 6 5 13 23 20 22 20 20 18 10
14 15 15 16 17 21 23 22 20 20 27 29 20 16 14 12 12 15 16 15 15 14 16 20 23 20 16 26 23 12 20 22 25 19 20 11 12 18 18 21 20 13 17 10 4
18 18 18 19 22 22 19 17 18 18 21 22 15 10 11 11 12 13 10 8 10 14 16 18 18 16 16 21 23 14 23 29 28 26 20 21 16 19 21 22 21 20 19 20 20
20 19 19 20 18 16 14 14 15 17 21 22 19 14 14 8 6 6 5 4 5 5 16 15 18 24 26 28 28 29 28 29 25 31 24 22 19 19 20 23 25 22 20 20 21
20 19 20 20 18 15 14 14 16 21 23 25 17 12 13 9 7 4 3 3 6 14 21 24 26 26 22 23 29 28 26 26 27 27 26 23 24 25 26 21 20 24 25 23 22
24 24 22 19 16 15 15 16 16 21 31 27 24 20 10 8 5 4 4 5 19 24 27 29 27 26 26 19 25 19 26 25 26 27 28 28 27 24 22 27 27 27 26 24 23
25 24 21 18 17 16 15 15 17 19 24 21 22 23 15 6 5 5 4 6 12 20 26 29 32 33 33 18 19 22 23 23 27 28 23 20 22 21 24 26 23 22 21 23 24
19 18 18 18 18 16 17 17 17 18 26 32 20 27 9 7 7 5 5 12 18 19 21 24 31 31 18 23 27 24 22 27 29 28 21 24 25 23 24 26 25 22 18 22 22
15 16 16 16 14 14 15 22 26 14 18 22 11 10 7 7 11 9 6 7 20 25 23 24 26 32 24 30 30 28 18 30 19 22 31 29 20 20 20 25 24 22 15 20 23
13 13 14 15 16 17 25 35 21 14 16 18 10 9 10 9 12 11 8 8 18 22 26 24 32 32 15 20 26 29 21 22 30 31 35 36 24 24 25 26 25 23 20 20 20
18 15 13 14 12 13 17 29 16 36 40 37 32 25 16 18 22 18 12 17 18 20 14 21 29 26 15 27 28 21 30 29 30 37 40 41 42 26 24 24 25 26 25 28 32
18 15 12 12 13 10 14 10 16 25 57 37 28 24 34 35 21 28 24 25 12 13 18 32 26 32 31 31 41 34 30 28 29 39 42 36 38 31 29 29 27 28 30 34 38
20 21 18 15 16 12 14 17 17 62 60 41 36 42 41 39 32 37 36 37 27 36 38 43 37 32 36 39 39 43 37 30 32 39 48 44 41 34 36 33 33 37 40 40 42
29 22 22 22 22 17 17 20 67 51 45 44 39 32 39 42 38 42 46 37 37 28 35 40 37 39 44 43 38 44 41 51 50 65 62 38 37 42 38 43 43 45 51 50 50
37 39 34 27 21 21 22 46 59 48 47 44 39 40 44 40 40 47 46 43 42 35 41 47 47 49 51 48 57 56 56 61 76 84 64 40 42 43 38 42 47 58 61 61 61
38 35 35 36 31 25 26 70 58 53 49 45 44 45 47 44 45 48 52 52 50 47 39 48 46 50 50 51 59 59 56 60 61 62 72 53 43 35 39 36 45 47 62 58 63
41 42 36 34 34 29 49 47 62 56 36 46 49 45 50 49 46 51 55 60 59 55 46 56 57 48 49 51 60 60 59 61 70 82 88 65 56 49 46 42 44 56 59 55 64
45 43 41 36 36 39 56 57 56 36 34 48 50 50 50 49 51 58 62 63 67 56 51 64 63 41 46 61 63 57 67 69 70 74 95 97 73 53 49 64 64 60 58 60 66
57 46 44 40 49 50 61 54 42 36 35 37 41 51 54 51 62 63 65 68 70 67 62 62 60 61 53 60 60 61 63 74 90 82 85 88 77 55 70 58 71 70 74 72 68
50 55 47 50 52 47 54 50 44 49 49 45 45 44 46 52 64 69 72 73 78 72 67 68 70 59 49 64 58 56 59 64 83 90 86 91 66 51 66 74 77 78 74 69 68
48 50 52 62 50 48 48 54 52 50 48 46 47 50 63 73 74 74 67 78 77 68 67 70 64 66 66 67 80 68 41 62 76 88 85 84 80 61 78 83 82 76 70 71 73
38 46 52 83 70 76 77 73 75 64 54 51 70 74 66 59 65 61 73 78 70 52 62 67 84 78 77 87 82 70 71 63 71 64 96 64 74 72 74 82 85 83 85 86 79
28 31 46 60 66 81 80 78 77 74 72 65 73 72 71 61 64 65 64 68 62 45 48 64 80 89 39 60 76 58 50 55 66 65 63 69 72 73 77 81 94 91 88 87 81
33 32 30 40 47 45 52 54 70 72 70 69 65 61 71 65 65 61 51 48 43 39 42 56 59 89 89 84 75 73 53 54 60 56 74 84 81 75 84 97 97 93 90 78 74
Wind_Speed
12 13 12 13 11 10 10 12 14 13 13 12 12 11 12 13 15 16 17 22 27 25 23 21 17 15 16 18 16 8 13 19 15 12 10 4 5 3 10 6 7 9 6 6 4
10 11 11 11 12 13 15 17 17 16 15 15 14 14 14 16 17 19 18 18 21 23 21 19 18 16 11 11 11 12 11 7 7 5 5 5 1 4 6 5 8 8 7 6 8
10 11 12 13 15 17 20 20 18 18 18 17 18 18 18 19 18 22 24 24 24 21 19 15 12 14 9 4 5 4 0 2 3 7 11 9 6 5 5 4 10 9 12 15 18
10 13 15 17 19 22 23 21 20 21 22 20 18 17 17 16 12 18 19 22 25 23 22 19 14 10 8 7 6 2 2 7 12 10 4 1 5 8 10 11 11 14 17 19 17
14 16 20 22 24 24 23 22 22 22 21 18 18 18 18 19 20 15 13 17 18 21 24 19 11 10 10 4 2 7 8 7 9 14 18 10 9 9 5 4 7 7 16 16 15
19 21 24 25 25 24 22 21 21 21 20 20 19 20 19 17 18 16 13 12 14 12 14 14 11 8 5 2 3 2 1 5 5 8 12 14 10 6 8 8 8 7 13 15 17
21 23 25 25 24 22 21 19 20 21 20 18 16 16 16 12 15 15 15 16 13 15 16 13 11 11 10 7 5 6 8 6 6 5 7 9 7 2 11 12 12 9 13 16 15
22 22 23 23 21 20 20 20 20 18 16 16 15 14 10 9 9 12 15 14 14 18 17 14 9 8 8 4 1 5 7 8 15 6 7 13 19 20 12 11 11 14 19 20 14
19 21 22 22 20 19 18 18 18 17 15 13 12 10 10 8 6 8 11 12 15 16 13 10 7 5 7 7 5 5 5 11 9 6 7 11 24 23 14 14 13 17 19 18 12
16 18 20 21 21 20 19 18 17 15 13 10 8 6 7 5 6 5 7 7 12 10 11 4 2 5 7 8 6 10 10 8 7 11 18 20 24 17 4 12 9 10 14 12 15
16 16 17 19 20 22 22 20 16 12 9 6 4 5 5 2 2 3 6 5 5 6 5 1 4 4 5 5 3 8 10 11 10 13 21 13 16 8 11 12 10 15 16 10 14
15 15 17 18 19 18 15 14 11 9 5 5 5 4 3 3 4 7 4 1 2 3 0 5 7 5 5 5 6 11 14 11 15 17 17 13 15 10 6 7 10 13 12 9 10
14 15 16 16 16 15 9 11 10 10 8 6 4 2 4 2 2 5 4 2 6 1 2 4 1 5 7 8 10 12 16 16 19 20 4 17 5 12 6 10 13 15 10 9 9
11 13 14 14 13 10 8 12 10 8 5 4 5 5 7 4 4 8 7 2 1 2 3 2 5 9 5 12 14 16 13 15 18 13 6 15 4 7 8 12 13 10 13 15 13
9 9 10 11 9 9 11 11 7 6 3 3 5 4 5 11 6 7 8 5 3 1 2 1 5 12 7 9 9 18 21 19 13 8 3 20 4 6 8 15 14 10 13 15 17
8 8 8 9 10 11 11 8 7 4 2 2 3 3 3 8 9 4 8 8 5 2 4 8 7 7 11 9 16 14 19 10 2 2 2 8 19 6 16 9 10 6 8 14 16
7 8 8 8 9 10 10 10 6 4 5 3 3 2 2 6 6 5 9 8 10 4 7 6 2 4 10 17 9 17 19 9 4 4 3 11 14 8 9 14 11 12 12 12 14
6 7 7 7 9 9 10 10 3 7 6 3 3 5 4 4 7 4 5 8 8 9 6 5 4 7 10 15 12 14 15 5 1 1 9 16 2 4 3 4 25 12 8 21 26
5 6 7 8 9 10 12 5 5 8 4 4 5 3 3 4 3 2 6 7 10 13 7 7 3 9 13 10 7 6 12 6 3 5 2 7 4 15 14 17 29 23 21 28 26
7 6 7 8 10 11 11 7 4 5 3 7 5 4 5 2 1 2 4 5 9 10 11 6 9 5 7 5 4 5 8 3 6 2 3 7 12 16 20 22 38 19 33 35 36
8 8 9 10 11 11 9 6 4 4 6 7 6 3 2 1 1 3 1 3 3 11 9 9 5 6 7 3 2 4 2 5 5 5 4 2 9 22 35 23 29 31 30 32 32
9 10 10 11 10 7 5 6 7 7 6 4 4 4 4 1 4 2 2 4 9 12 10 7 7 11 8 5 5 2 7 18 7 7 19 21 27 10 6 28 29 30 27 24 28
5 8 9 9 7 7 6 5 5 4 4 5 5 3 3 3 2 3 4 6 8 11 12 11 5 8 4 6 3 9 18 24 24 13 16 8 13 25 24 22 24 18 22 32 34
7 7 8 7 7 7 8 8 6 5 3 2 2 2 3 3 2 3 6 5 9 15 15 13 10 10 10 11 15 23 27 26 26 22 25 35 40 32 31 19 17 26 31 34 36
7 8 10 10 8 7 5 5 1 3 4 2 2 2 3 4 7 9 9 10 14 16 13 16 16 17 21 19 20 29 31 29 31 28 27 33 29 33 33 28 29 34 35 39 44
7 7 8 10 9 10 8 8 6 4 5 5 7 6 8 10 11 13 17 18 21 18 17 18 20 19 27 25 21 30 28 17 17 18 28 30 38 31 31 34 31 36 40 46 52
8 7 8 9 9 9 9 11 11 10 8 9 10 13 12 14 17 18 18 18 18 20 20 23 19 11 11 18 21 25 9 17 23 27 27 25 33 36 35 33 39 45 49 53 51
Wind_Direction
211 204 201 202 187 180 158 163 146 133 126 130 125 116 108 110 113 107 111 107 106 101 96 91 86 86 73 52 39 92 114 109 104 122 119 102 73 16 345 336 302 317 328 340 327
201 192 188 183 169 157 158 149 134 132 132 132 127 128 125 123 117 102 108 113 111 104 102 99 87 82 63 66 67 118 140 96 99 118 134 166 221 322 343 285 329 303 298 318 323
183 173 165 161 153 152 143 137 135 135 138 133 131 127 122 119 119 111 116 122 122 118 110 92 82 80 65 101 91 60 82 127 216 242 245 255 260 283 301 319 327 326 315 314 315
154 156 153 149 147 143 139 134 138 143 140 135 128 124 122 123 113 122 128 136 135 135 132 115 106 103 110 76 69 57 86 79 72 54 40 351 253 246 255 269 284 290 291 302 311
146 142 141 141 140 137 136 139 140 140 138 137 124 114 112 117 120 126 143 139 145 141 133 122 126 129 119 116 36 101 100 93 35 31 37 28 10 338 360 259 323 336 2 346 327
133 136 137 135 134 136 142 144 145 148 147 134 123 114 113 120 121 124 124 123 131 115 119 129 138 128 124 120 352 333 341 349 1 353 19 6 5 4 15 267 300 314 339 343 355
131 133 134 134 134 135 140 147 148 146 138 128 117 113 110 119 121 113 107 100 95 99 97 97 107 93 69 62 40 1 355 312 340 295 314 332 24 27 329 271 283 286 316 321 329
130 134 135 132 134 137 139 142 138 135 128 121 113 102 103 101 100 107 107 105 113 117 112 106 93 83 65 14 51 37 35 20 9 356 295 306 314 321 322 290 309 293 312 305 318
133 140 140 138 139 138 138 140 140 135 123 113 108 106 94 90 98 110 110 116 130 130 128 123 109 77 41 48 107 44 41 2 26 69 303 299 301 317 308 287 285 289 293 294 296
142 146 144 144 144 145 150 144 141 143 139 122 110 94 104 101 115 118 115 126 164 152 143 106 75 325 339 319 16 351 342 332 330 315 305 300 291 303 238 274 288 297 296 267 270
151 152 151 151 152 159 156 149 143 138 126 102 110 90 83 116 38 75 80 136 154 136 86 83 302 319 350 334 325 326 313 311 300 317 313 322 306 292 245 279 287 302 323 293 287
151 155 158 162 168 161 148 142 134 133 138 106 63 82 51 14 19 20 24 54 165 145 350 259 253 281 324 276 287 304 327 321 320 329 327 339 335 14 322 280 271 283 302 278 267
148 153 162 169 166 162 148 160 142 126 116 85 76 59 12 344 47 17 22 80 170 166 287 234 314 327 310 294 304 309 320 317 325 332 54 355 47 358 314 248 270 278 288 290 282
158 161 164 168 170 173 174 158 136 122 94 61 30 18 18 11 43 33 46 58 312 67 233 268 8 349 337 334 318 318 316 320 331 338 352 359 285 338 324 277 273 281 288 282 279
161 165 168 166 160 158 153 143 128 147 75 83 26 30 48 34 26 34 40 31 56 347 81 50 345 345 9 13 332 327 322 327 318 314 340 28 345 19 347 301 286 270 287 306 321
144 158 164 163 166 165 155 148 141 133 106 79 62 64 45 19 41 21 10 17 46 102 51 2 312 330 338 341 338 324 323 316 237 112 102 11 352 50 3 358 216 233 307 323 308
136 138 149 163 172 168 167 148 119 65 135 129 62 121 101 15 34 13 5 6 29 22 10 29 98 321 333 344 10 4 17 10 35 15 229 319 330 85 71 74 28 343 337 329 317
148 148 149 148 149 156 161 153 107 117 121 135 30 125 64 38 52 29 8 1 8 13 354 359 269 348 339 351 360 30 26 50 246 346 295 319 236 200 249 8 15 356 342 334 322
168 165 150 153 156 157 163 156 133 159 170 169 129 91 144 76 94 51 2 18 10 6 24 344 310 276 305 352 351 7 20 17 288 289 289 289 277 312 263 271 317 332 308 319 322
166 165 155 146 154 162 172 159 158 193 144 168 136 142 127 120 252 66 4 5 357 355 345 317 312 330 345 329 65 35 11 354 4 8 285 285 281 263 290 297 308 314 323 317 315
148 163 141 147 154 168 179 164 190 180 180 183 171 193 179 42 204 94 3 327 326 340 335 327 313 334 347 347 338 47 10 24 325 271 225 272 257 285 296 310 320 310 303 302 308
139 137 142 149 152 172 151 147 140 148 167 182 189 202 233 288 191 199 285 312 325 343 1 343 305 317 354 106 151 164 270 332 2 312 291 282 281 306 265 310 318 310 305 292 302
154 143 147 156 168 165 157 170 155 121 141 136 141 154 182 184 189 206 260 303 313 333 342 338 318 325 115 152 164 287 261 304 320 319 286 263 271 301 322 322 299 295 292 295 297
147 133 138 156 148 135 145 139 155 137 138 127 141 182 162 216 210 215 248 258 304 322 323 322 304 299 266 288 299 299 304 315 307 285 284 273 287 324 324 302 279 291 295 294 296
185 161 159 159 153 144 132 128 131 160 106 145 159 259 263 234 246 257 244 261 287 300 299 307 286 291 295 291 300 295 294 304 300 297 280 300 305 319 309 299 297 300 299 300 308
201 183 173 177 180 181 187 173 188 200 269 247 223 239 274 293 288 282 296 298 302 304 298 292 283 288 295 294 297 297 307 310 295 303 297 300 301 306 298 293 290 293 295 306 311
224 211 203 204 211 209 200 200 222 229 230 243 255 266 265 284 286 290 293 300 300 296 294 289 286 287 278 300 315 298 341 311 306 303 306 309 310 309 302 293 298 298 310 314 312